Weather Roundup
Issued by NWS Chicago, IL

Home | Current Version | Previous Version | Graphics & Text | Print | Product List | Glossary On
Versions: 1 2 3 4 5 6 7 8 9 10 11 12 13 14 15 16 17 18 19 20 21 22 23 24 25 26 27 28 29 30 31 32 33 34 35 36 37 38 39 40 41 42 43 44 45 46 47 48 49 50
000
NZUS59 KLOT 021800
HRRLOT

CHICAGO AREA WEATHER ROUNDUP
NATIONAL WEATHER SERVICE CHICAGO/ROMEOVILLE IL
1200 PM CST MON MAR 02 2015

NOTE: "FAIR" INDICATES FEW OR NO CLOUDS BELOW 12,000 FEET WITH NO
SIGNIFICANT WEATHER AND/OR OBSTRUCTIONS TO VISIBILITY.

* THESE STATIONS ARE NOT UNDER NWS QUALITY CONTROL. THEY ALSO MAY NOT
  REPORT WEATHER SUCH AS PRECIPITATION OR FOG.

ILZ005-006-012>014-019>023-021900-
NORTHEAST ILLINOIS

CITY           SKY/WX    TMP DP  RH WIND       PRES   REMARKS
OHARE          PTSUNNY   27  11  51 CALM      30.51F
6HR MIN TEMP:  13; 6HR MAX TEMP:  29;

MIDWAY         PTSUNNY   31  12  45 CALM      30.52F
6HR MIN TEMP:  16; 6HR MAX TEMP:  31;

AURORA         SUNNY     24  13  62 NW5       30.52F WCI  18
6HR MIN TEMP:   1; 6HR MAX TEMP:  24;

LANSING*       SUNNY     28  14  57 S3        30.52F
WAUKEGAN       SUNNY     26   9  48 W5        30.50F WCI  20
6HR MIN TEMP:  10; 6HR MAX TEMP:  26;

DUPAGE AIRPORT SUNNY     28  11  48 N5        30.50F WCI  23
6HR MIN TEMP:  10; 6HR MAX TEMP:  28; 6HR PCP: TRACE;

WHEELING       SUNNY     27  10  49 CALM      30.53S
6HR MIN TEMP:  13; 6HR MAX TEMP:  28;

NORTHERLY IS     N/A     26  15  63 E5          N/A  WCI  21
$$

WIZ051-052-058>065-066-070>072-021900-
SOUTHEAST WISCONSIN

CITY           SKY/WX    TMP DP  RH WIND       PRES   REMARKS
MILWAUKEE      MOSUNNY   27   8  44 SW3       30.49F
6HR MIN TEMP:  16; 6HR MAX TEMP:  28;

KENOSHA*       SUNNY     24  10  55 NW6       30.50S WCI  17
RACINE*        SUNNY     25   8  48 W5        30.51S WCI  19
WAUKESHA       SUNNY     19   9  63 W5        30.49F WCI  13
$$

INZ001>003-010>013-019-020-021900-
NORTHWEST INDIANA

CITY           SKY/WX    TMP DP  RH WIND       PRES   REMARKS
GARY*          MOSUNNY   28  12  50 N6        30.54S WCI  22
MICHIGAN CITY* NOT AVBL
RENSSELAER*    NOT AVBL
$$

LMZ740>746-021900-
SOUTHERN LAKE MICHIGAN

STATION/POSITION TIME  SKY/WX   TEMP WIND        PRES    VSBY
                                AIR  DIR/SP/G
                 (UTC)          (F)  (DEG/KT/KT) (MB)    (MI)
HARRISON CRIB    1700            23  360/  5/  7   N/A
BURNHAM HARBOR   1800            27   80/  4/  6   N/A
CALUMET HARBOR   1700            26   40/  5/  7 1032.4R
BURNS HARBOR     NOT AVBL
MICHIGAN CITY    1700            29  290/  5/  6   N/A
$$

ABBREVIATIONS USED IN REMARKS
   TC - TEMPERATURE IN CELSIUS
  WCI - WIND CHILL INDEX
   HX - HEAT INDEX
  VSB - VISIBILITY
$$



USA.gov is the U.S. government's official web portal to all federal, state and local government web resources and services.